Location: Breungeshain
(50.5000°N, 9.2000°E)
Time: 09:48:03
(UTC+00:00)

ISS - Pass Details

Date: 24 May 2017
Orbit: 402 x 409 km, 51.6° (Epoch: 24 May)

Event Time Altitude Azimuth Distance (km) Brightness Sun altitude
Rises 21:27:22 0° 239° (WSW) 2,326 0.0 -14.4°
Reaches altitude 10° 21:29:28 10° 235° (SW) 1,467 -1.1 -14.5°
Maximum altitude 21:32:42 55° 156° (SSE) 495 -3.8 -14.7°
Drops below altitude 10° 21:35:56 10° 78° (ENE) 1,470 -1.1 -15.0°
Sets 21:38:02 0° 74° (ENE) 2,331 -0.1 -15.1°
